,,,PA_Meas_PMT16A,,PR_Meas_QMR101_102,,RH_Meas_QMH101,,SR_Meas_QMS101,,TA_Meas_QMH101,,GenWind,,GenWind,
date,time,status,PA,status,PR,status,RH,status,SR,status,TA,status,DirAvg,status,SpdAvg,
2009-10-17, 00:00:04,VALID,1000.8,VALID,0,VALID,90.8383,VALID,0,VALID,21.6741,VALID,120,VALID,1.4625,
2009-10-17, 00:01:04,VALID,1000.76,VALID,0,VALID,90.2889,VALID,0,VALID,21.8106,VALID,108,VALID,1.40469,
2009-10-17, 00:02:04,VALID,1000.77,VALID,0,VALID,89.4268,VALID,0,VALID,21.8692,VALID,108,VALID,1.12109,
2009-10-17, 00:03:04,VALID,1000.77,VALID,0,VALID,88.9385,VALID,0,VALID,21.9472,VALID,114,VALID,1.29336,
2009-10-17, 00:04:04,VALID,1000.76,VALID,0,VALID,88.6409,VALID,0,VALID,22.0057,VALID,121,VALID,1.30313,
2009-10-17, 00:05:04,VALID,1000.75,VALID,0,VALID,88.3357,VALID,0,VALID,22.0642,VALID,131,VALID,1.26836,
2009-10-17, 00:06:04,VALID,1000.69,VALID,0,VALID,88.2442,VALID,0,VALID,22.082,VALID,128,VALID,1.32305,
2009-10-17, 00:07:04,VALID,1000.68,VALID,0,VALID,88.2137,VALID,0,VALID,22.1015,VALID,117,VALID,0.876172,
2009-10-17, 00:08:04,VALID,1000.64,VALID,0,VALID,88.3586,VALID,0,VALID,22.1032,VALID,111,VALID,0.583984,
2009-10-17, 00:09:04,VALID,1000.65,VALID,0,VALID,88.496,VALID,0,VALID,22.082,VALID,111,VALID,0.563281,
2009-10-17, 00:10:04,VALID,1000.67,VALID,0,VALID,88.2747,VALID,0,VALID,22.043,VALID,111,VALID,0.332422,
2009-10-17, 00:11:04,VALID,1000.64,VALID,0,VALID,88.1526,VALID,0,VALID,22.0057,VALID,111,VALID,0.178516,
2009-10-17, 00:12:04,VALID,1000.64,VALID,0,VALID,87.8474,VALID,0,VALID,21.9065,VALID,111,VALID,0.202734,
2009-10-17, 00:13:04,VALID,1000.64,VALID,0,VALID,87.9237,VALID,0,VALID,21.8675,VALID,111,VALID,0,
2009-10-17, 00:14:04,VALID,1000.62,VALID,0,VALID,88.4273,VALID,0,VALID,21.8106,VALID,100,VALID,0.444531,
2009-10-17, 00:15:04,VALID,1000.6,VALID,0,VALID,88.557,VALID,0,VALID,21.7505,VALID,46,VALID,0.644531,
2009-10-17, 00:16:04,VALID,1000.54,VALID,0,VALID,88.9156,VALID,0,VALID,21.7521,VALID,49,VALID,0.799219,
2009-10-17, 00:17:04,VALID,1000.53,VALID,0,VALID,88.9537,VALID,0,VALID,21.7521,VALID,54,VALID,0.486328,
2009-10-17, 00:18:04,VALID,1000.51,VALID,0,VALID,88.8622,VALID,0,VALID,21.7131,VALID,52,VALID,0.285937,
2009-10-17, 00:19:04,VALID,1000.51,VALID,0,VALID,89.0224,VALID,0,VALID,21.7131,VALID,52,VALID,0.469922,
2009-10-17, 00:20:04,VALID,1000.51,VALID,0,VALID,88.7859,VALID,0,VALID,21.6936,VALID,29,VALID,0.561719,
2009-10-17, 00:21:04,VALID,1000.51,VALID,0,VALID,88.6638,VALID,0,VALID,21.6936,VALID,12,VALID,0.58125,
2009-10-17, 00:22:04,VALID,1000.5,VALID,0,VALID,88.6028,VALID,0,VALID,21.7131,VALID,357,VALID,0.70625,
2009-10-17, 00:23:04,VALID,1000.46,VALID,0,VALID,88.557,VALID,0,VALID,21.7326,VALID,351,VALID,0.624609,
2009-10-17, 00:24:04,VALID,1000.49,VALID,0,VALID,88.5951,VALID,0,VALID,21.7131,VALID,352,VALID,0.294141,
2009-10-17, 00:25:04,VALID,1000.48,VALID,0,VALID,89.03,VALID,0,VALID,21.6936,VALID,352,VALID,0.144531,
2009-10-17, 00:26:04,VALID,1000.44,VALID,0,VALID,88.5646,VALID,0,VALID,21.6351,VALID,352,VALID,0,
2009-10-17, 00:27:04,VALID,1000.4,VALID,0,VALID,88.908,VALID,0,VALID,21.5555,VALID,352,VALID,0.455859,
2009-10-17, 00:28:04,VALID,1000.36,VALID,0,VALID,88.6257,VALID,0,VALID,21.5165,VALID,3,VALID,0.418359,
2009-10-17, 00:29:04,VALID,1000.37,VALID,0,VALID,89.175,VALID,0,VALID,21.4791,VALID,3,VALID,0.289844,
2009-10-17, 00:30:04,VALID,1000.35,VALID,0,VALID,89.1292,VALID,0,VALID,21.4385,VALID,3,VALID,0.38125,
2009-10-17, 00:31:04,VALID,1000.37,VALID,0,VALID,89.1826,VALID,0,VALID,21.4011,VALID,3,VALID,0.821094,
2009-10-17, 00:32:04,VALID,1000.34,VALID,0,VALID,88.6867,VALID,0,VALID,21.3621,VALID,2,VALID,0.319141,
2009-10-17, 00:33:04,VALID,1000.33,VALID,0,VALID,89.2513,VALID,0,VALID,21.2435,VALID,354,VALID,0.845312,
2009-10-17, 00:34:04,VALID,1000.34,VALID,0,VALID,90.0753,VALID,0,VALID,21.224,VALID,352,VALID,0.634375,
2009-10-17, 00:35:04,VALID,1000.32,VALID,0,VALID,89.9227,VALID,0,VALID,21.1655,VALID,352,VALID,0.575781,
2009-10-17, 00:36:04,VALID,1000.31,VALID,0,VALID,90.4034,VALID,0,VALID,21.1866,VALID,352,VALID,0.587109,
2009-10-17, 00:37:04,VALID,1000.28,VALID,0,VALID,90.3881,VALID,0,VALID,21.1265,VALID,352,VALID,0.412891,
2009-10-17, 00:38:04,VALID,1000.27,VALID,0,VALID,90.8154,VALID,0,VALID,21.1476,VALID,352,VALID,0.583984,
2009-10-17, 00:39:04,VALID,1000.28,VALID,0,VALID,91.0519,VALID,0,VALID,21.1671,VALID,347,VALID,0.515625,
2009-10-17, 00:40:04,VALID,1000.29,VALID,0,VALID,91.2808,VALID,0,VALID,21.2061,VALID,347,VALID,0.38125,
2009-10-17, 00:41:04,VALID,1000.27,VALID,0,VALID,91.3952,VALID,0,VALID,21.224,VALID,347,VALID,0.639844,
2009-10-17, 00:42:04,VALID,1000.25,VALID,0,VALID,91.2045,VALID,0,VALID,21.2451,VALID,347,VALID,0.433594,
2009-10-17, 00:43:04,VALID,1000.25,VALID,0,VALID,91.3418,VALID,0,VALID,21.224,VALID,347,VALID,0.327344,
2009-10-17, 00:44:04,VALID,1000.24,VALID,0,VALID,91.3723,VALID,0,VALID,21.263,VALID,347,VALID,0.468359,
2009-10-17, 00:45:04,VALID,1000.23,VALID,0,VALID,91.4257,VALID,0.112286,VALID,21.263,VALID,347,VALID,0.333203,
2009-10-17, 00:46:04,VALID,1000.19,VALID,0,VALID,91.38,VALID,0,VALID,21.263,VALID,347,VALID,0.315625,
2009-10-17, 00:47:04,VALID,1000.15,VALID,0,VALID,91.4334,VALID,0.112286,VALID,21.2224,VALID,347,VALID,0.346875,
2009-10-17, 00:48:04,VALID,1000.14,VALID,0,VALID,91.3189,VALID,0.112286,VALID,21.2435,VALID,347,VALID,0.265234,
2009-10-17, 00:49:04,VALID,1000.12,VALID,0,VALID,90.678,VALID,0,VALID,21.185,VALID,347,VALID,0.302734,
2009-10-17, 00:50:04,VALID,1000.1,VALID,0,VALID,90.8688,VALID,0,VALID,21.107,VALID,347,VALID,0.408594,
2009-10-17, 00:51:04,VALID,1000.09,VALID,0,VALID,91.1434,VALID,0,VALID,21.0859,VALID,347,VALID,0.421094,
2009-10-17, 00:52:04,VALID,1000.06,VALID,0,VALID,90.968,VALID,0,VALID,21.0079,VALID,347,VALID,0.55,
2009-10-17, 00:53:04,VALID,1000.06,VALID,0,VALID,91.7614,VALID,0.112286,VALID,21.0079,VALID,347,VALID,0.498437,
2009-10-17, 00:54:04,VALID,1000.05,VALID,0,VALID,91.8835,VALID,0,VALID,21.0079,VALID,347,VALID,0.329297,
2009-10-17, 00:55:04,VALID,1000.03,VALID,0,VALID,91.7157,VALID,0.112286,VALID,20.9689,VALID,347,VALID,0,
2009-10-17, 00:56:04,VALID,999.979,VALID,0,VALID,92.1277,VALID,0.112286,VALID,20.99,VALID,347,VALID,0.409375,
2009-10-17, 00:57:04,VALID,999.951,VALID,0,VALID,92.1429,VALID,0,VALID,20.99,VALID,347,VALID,0.275781,
2009-10-17, 00:58:04,VALID,999.935,VALID,0,VALID,92.1734,VALID,0,VALID,20.9884,VALID,347,VALID,0.376563,
2009-10-17, 00:59:04,VALID,999.946,VALID,0,VALID,92.1582,VALID,0,VALID,21.0111,VALID,347,VALID,0.276563,
2009-10-17, 01:00:04,VALID,999.938,VALID,0,VALID,92.2803,VALID,0,VALID,21.029,VALID,347,VALID,0.35625,
2009-10-17, 01:01:04,VALID,999.94,VALID,0,VALID,92.3337,VALID,0,VALID,21.068,VALID,347,VALID,0.305469,
2009-10-17, 01:02:04,VALID,999.913,VALID,0,VALID,92.3184,VALID,0,VALID,21.1086,VALID,347,VALID,0.229687,
2009-10-17, 01:03:04,VALID,999.937,VALID,0,VALID,92.2574,VALID,0,VALID,21.107,VALID,347,VALID,0.0617188,
2009-10-17, 01:04:04,VALID,999.919,VALID,0,VALID,92.1658,VALID,0,VALID,21.107,VALID,347,VALID,0.157031,
2009-10-17, 01:05:04,VALID,999.897,VALID,0,VALID,92.2192,VALID,0,VALID,21.107,VALID,347,VALID,0.384766,
2009-10-17, 01:06:04,VALID,999.915,VALID,0,VALID,92.2345,VALID,0,VALID,21.1265,VALID,347,VALID,0.345313,
2009-10-17, 01:07:04,VALID,999.859,VALID,0,VALID,92.2574,VALID,0,VALID,21.1655,VALID,345,VALID,0.648047,
2009-10-17, 01:08:04,VALID,999.84,VALID,0,VALID,92.0971,VALID,0,VALID,21.2256,VALID,344,VALID,0.540625,
2009-10-17, 01:09:04,VALID,999.828,VALID,0,VALID,91.9369,VALID,0,VALID,21.2646,VALID,344,VALID,0.305859,
2009-10-17, 01:10:04,VALID,999.802,VALID,0,VALID,91.8072,VALID,0,VALID,21.2841,VALID,344,VALID,0.250781,
2009-10-17, 01:11:04,VALID,999.817,VALID,0,VALID,91.7157,VALID,0,VALID,21.2646,VALID,344,VALID,0.00351562,
2009-10-17, 01:12:04,VALID,999.802,VALID,0,VALID,91.7462,VALID,0,VALID,21.2841,VALID,344,VALID,0.268359,
2009-10-17, 01:13:04,VALID,999.752,VALID,0,VALID,91.5707,VALID,0,VALID,21.2841,VALID,344,VALID,0.354688,
2009-10-17, 01:14:04,VALID,999.712,VALID,0,VALID,91.4868,VALID,0,VALID,21.2646,VALID,335,VALID,0.586719,
2009-10-17, 01:15:04,VALID,999.711,VALID,0,VALID,91.4715,VALID,0,VALID,21.2841,VALID,334,VALID,0.410156,
2009-10-17, 01:16:04,VALID,999.657,VALID,0,VALID,91.4334,VALID,0,VALID,21.2825,VALID,334,VALID,0.518359,
2009-10-17, 01:17:04,VALID,999.672,VALID,0,VALID,91.4028,VALID,0,VALID,21.2825,VALID,334,VALID,0.277344,
2009-10-17, 01:18:04,VALID,999.667,VALID,0,VALID,91.3571,VALID,0,VALID,21.3036,VALID,334,VALID,0.0429688,
2009-10-17, 01:19:04,VALID,999.687,VALID,0,VALID,91.2884,VALID,0,VALID,21.302,VALID,334,VALID,0.290625,
2009-10-17, 01:20:04,VALID,999.619,VALID,0,VALID,91.3342,VALID,0,VALID,21.3426,VALID,334,VALID,0.259375,
2009-10-17, 01:21:04,VALID,999.628,VALID,0,VALID,91.1587,VALID,0,VALID,21.341,VALID,334,VALID,0.432422,
2009-10-17, 01:22:04,VALID,999.637,VALID,0,VALID,90.9222,VALID,0,VALID,21.3426,VALID,334,VALID,0.397266,
2009-10-17, 01:23:04,VALID,999.6,VALID,0,VALID,90.4415,VALID,0,VALID,21.3036,VALID,334,VALID,0.373828,
2009-10-17, 01:24:04,VALID,999.596,VALID,0,VALID,90.8917,VALID,0,VALID,21.2841,VALID,334,VALID,0.214453,
2009-10-17, 01:25:04,VALID,999.589,VALID,0,VALID,90.8383,VALID,0,VALID,21.2435,VALID,334,VALID,0,
2009-10-17, 01:26:04,VALID,999.577,VALID,0,VALID,91.0061,VALID,0,VALID,21.2646,VALID,334,VALID,0.0828125,
2009-10-17, 01:27:04,VALID,999.545,VALID,0,VALID,91.1206,VALID,0,VALID,21.224,VALID,334,VALID,0,
2009-10-17, 01:28:04,VALID,999.565,VALID,0,VALID,91.1358,VALID,0,VALID,21.224,VALID,334,VALID,0,
2009-10-17, 01:29:04,VALID,999.524,VALID,0,VALID,91.2579,VALID,0,VALID,21.2451,VALID,334,VALID,0,
2009-10-17, 01:30:04,VALID,999.493,VALID,0,VALID,91.1663,VALID,0,VALID,21.2646,VALID,334,VALID,0,
2009-10-17, 01:31:04,VALID,999.469,VALID,0,VALID,91.0748,VALID,0,VALID,21.2646,VALID,334,VALID,0,
2009-10-17, 01:32:04,VALID,999.443,VALID,0,VALID,91.1434,VALID,0,VALID,21.2841,VALID,22,VALID,0.803125,
2009-10-17, 01:33:04,VALID,999.451,VALID,0,VALID,90.9222,VALID,0,VALID,21.3036,VALID,39,VALID,0.661719,
2009-10-17, 01:34:04,VALID,999.464,VALID,0,VALID,90.7543,VALID,0,VALID,21.2825,VALID,39,VALID,0.280469,
2009-10-17, 01:35:04,VALID,999.467,VALID,0,VALID,90.556,VALID,0,VALID,21.3036,VALID,39,VALID,0.0820313,
2009-10-17, 01:36:04,VALID,999.475,VALID,0,VALID,90.3805,VALID,0,VALID,21.302,VALID,39,VALID,0.470703,
2009-10-17, 01:37:04,VALID,999.416,VALID,0,VALID,90.1592,VALID,0,VALID,21.3231,VALID,33,VALID,0.667188,
2009-10-17, 01:38:04,VALID,999.443,VALID,0,VALID,89.5565,VALID,0,VALID,21.3231,VALID,21,VALID,0.720703,
2009-10-17, 01:39:04,VALID,999.413,VALID,0,VALID,89.0453,VALID,0,VALID,21.2646,VALID,21,VALID,0.310937,
2009-10-17, 01:40:04,VALID,999.42,VALID,0,VALID,88.7096,VALID,0,VALID,21.1866,VALID,59,VALID,0.894531,
2009-10-17, 01:41:04,VALID,999.394,VALID,0,VALID,89.8769,VALID,0,VALID,21.146,VALID,51,VALID,1.09727,
2009-10-17, 01:42:04,VALID,999.378,VALID,0,VALID,87.8246,VALID,0,VALID,21.224,VALID,51,VALID,0.932031,
2009-10-17, 01:43:04,VALID,999.358,VALID,0,VALID,87.5499,VALID,0,VALID,21.2841,VALID,51,VALID,1.07773,
2009-10-17, 01:44:04,VALID,999.365,VALID,0,VALID,87.7254,VALID,0,VALID,21.2451,VALID,52,VALID,0.885938,
2009-10-17, 01:45:04,VALID,999.365,VALID,0,VALID,88.2823,VALID,0,VALID,21.146,VALID,80,VALID,1.01914,
2009-10-17, 01:46:04,VALID,999.345,VALID,0,VALID,89.0224,VALID,0,VALID,21.1476,VALID,80,VALID,0.997656,
2009-10-17, 01:47:04,VALID,999.325,VALID,0,VALID,89.0834,VALID,0,VALID,21.1476,VALID,74,VALID,0.942187,
2009-10-17, 01:48:04,VALID,999.358,VALID,0,VALID,89.1063,VALID,0,VALID,21.1281,VALID,76,VALID,0.941797,
2009-10-17, 01:49:04,VALID,999.326,VALID,0,VALID,89.0071,VALID,0,VALID,21.0696,VALID,76,VALID,0.509375,
2009-10-17, 01:50:04,VALID,999.326,VALID,0,VALID,88.9309,VALID,0,VALID,21.0306,VALID,76,VALID,0.233984,
2009-10-17, 01:51:04,VALID,999.302,VALID,0,VALID,89.4344,VALID,0,VALID,20.9721,VALID,76,VALID,0.346484,
2009-10-17, 01:52:04,VALID,999.315,VALID,0,VALID,89.6404,VALID,0,VALID,20.9331,VALID,61,VALID,0.548437,
2009-10-17, 01:53:04,VALID,999.311,VALID,0,VALID,90.0753,VALID,0,VALID,20.9136,VALID,30,VALID,0.987109,
2009-10-17, 01:54:04,VALID,999.367,VALID,0,VALID,90.0143,VALID,0,VALID,20.8746,VALID,21,VALID,0.755469,
2009-10-17, 01:55:04,VALID,999.373,VALID,0,VALID,90.7009,VALID,0,VALID,20.8551,VALID,21,VALID,0.802734,
2009-10-17, 01:56:04,VALID,999.36,VALID,0,VALID,90.3194,VALID,0,VALID,20.8161,VALID,21,VALID,0.546094,
2009-10-17, 01:57:04,VALID,999.367,VALID,0,VALID,90.0295,VALID,0,VALID,20.7771,VALID,21,VALID,0.432813,
2009-10-17, 01:58:04,VALID,999.354,VALID,0,VALID,90.2813,VALID,0,VALID,20.7576,VALID,20,VALID,0.383594,
2009-10-17, 01:59:04,VALID,999.344,VALID,0,VALID,90.6628,VALID,0,VALID,20.7755,VALID,20,VALID,0.317578,
2009-10-17, 02:00:04,VALID,999.321,VALID,0,VALID,90.5788,VALID,0,VALID,20.795,VALID,20,VALID,0.224219,
2009-10-17, 02:01:04,VALID,999.319,VALID,0,VALID,90.411,VALID,0,VALID,20.795,VALID,20,VALID,0.202734,
2009-10-17, 02:02:04,VALID,999.385,VALID,0,VALID,90.3042,VALID,0,VALID,20.8161,VALID,20,VALID,0,
2009-10-17, 02:03:04,VALID,999.352,VALID,0,VALID,90.3652,VALID,0,VALID,20.795,VALID,20,VALID,0.0015625,
2009-10-17, 02:04:04,VALID,999.318,VALID,0,VALID,90.3576,VALID,0,VALID,20.756,VALID,20,VALID,0.431641,
2009-10-17, 02:05:04,VALID,999.308,VALID,0,VALID,90.5788,VALID,0,VALID,20.7576,VALID,20,VALID,0.26875,
2009-10-17, 02:06:04,VALID,999.287,VALID,0,VALID,90.9832,VALID,0,VALID,20.756,VALID,20,VALID,0.316016,
2009-10-17, 02:07:04,VALID,999.276,VALID,0,VALID,91.1587,VALID,0,VALID,20.795,VALID,21,VALID,0.510938,
2009-10-17, 02:08:04,VALID,999.24,VALID,0,VALID,91.1816,VALID,0,VALID,20.8356,VALID,21,VALID,0.390234,
2009-10-17, 02:09:04,VALID,999.232,VALID,0,VALID,91.2731,VALID,0,VALID,20.8746,VALID,21,VALID,0.405078,
2009-10-17, 02:10:04,VALID,999.22,VALID,0,VALID,91.0824,VALID,0,VALID,20.9136,VALID,21,VALID,0.441016,
2009-10-17, 02:11:04,VALID,999.233,VALID,0,VALID,91.2121,VALID,0,VALID,20.912,VALID,21,VALID,0.423438,
2009-10-17, 02:12:04,VALID,999.25,VALID,0,VALID,91.0519,VALID,0,VALID,20.9315,VALID,89,VALID,0.942969,
2009-10-17, 02:13:04,VALID,999.252,VALID,0,VALID,90.8535,VALID,0,VALID,20.99,VALID,93,VALID,1.03164,
2009-10-17, 02:14:04,VALID,999.26,VALID,0,VALID,90.4263,VALID,0,VALID,21.029,VALID,77,VALID,1.03672,
2009-10-17, 02:15:04,VALID,999.26,VALID,0,VALID,89.4726,VALID,0,VALID,21.0891,VALID,63,VALID,0.555469,
2009-10-17, 02:16:04,VALID,999.291,VALID,0,VALID,89.0834,VALID,0,VALID,21.0891,VALID,63,VALID,0.387109,
2009-10-17, 02:17:04,VALID,999.326,VALID,0,VALID,89.3123,VALID,0,VALID,21.0696,VALID,63,VALID,0.370313,
2009-10-17, 02:18:04,VALID,999.352,VALID,0,VALID,89.587,VALID,0,VALID,21.029,VALID,105,VALID,0.692969,
2009-10-17, 02:19:04,VALID,999.307,VALID,0,VALID,89.6023,VALID,0,VALID,21.0501,VALID,107,VALID,0.421484,
2009-10-17, 02:20:04,VALID,999.275,VALID,0,VALID,88.9003,VALID,0,VALID,21.068,VALID,107,VALID,0.549609,
2009-10-17, 02:21:04,VALID,999.304,VALID,0,VALID,88.5112,VALID,0,VALID,21.1866,VALID,107,VALID,0.558984,
2009-10-17, 02:22:04,VALID,999.275,VALID,0,VALID,87.2294,VALID,0,VALID,21.2646,VALID,40,VALID,0.705078,
2009-10-17, 02:23:04,VALID,999.253,VALID,0,VALID,87.527,VALID,0,VALID,21.2435,VALID,23,VALID,0.735937,
2009-10-17, 02:24:04,VALID,999.225,VALID,0,VALID,87.7483,VALID,0,VALID,21.1866,VALID,20,VALID,0.637109,
2009-10-17, 02:25:04,VALID,999.274,VALID,0,VALID,88.2289,VALID,0,VALID,21.1476,VALID,20,VALID,0.483984,
2009-10-17, 02:26:04,VALID,999.221,VALID,0,VALID,87.2981,VALID,0,VALID,21.029,VALID,21,VALID,0.503516,
2009-10-17, 02:27:04,VALID,999.223,VALID,0,VALID,88.7477,VALID,0,VALID,20.99,VALID,47,VALID,0.68125,
2009-10-17, 02:28:04,VALID,999.258,VALID,0,VALID,88.6028,VALID,0,VALID,20.9721,VALID,70,VALID,0.769531,
2009-10-17, 02:29:04,VALID,999.227,VALID,0,VALID,87.878,VALID,0,VALID,20.9315,VALID,73,VALID,0.710547,
2009-10-17, 02:30:04,VALID,999.225,VALID,0,VALID,87.9466,VALID,0,VALID,20.8941,VALID,73,VALID,0.619531,
2009-10-17, 02:31:04,VALID,999.238,VALID,0,VALID,88.0916,VALID,0,VALID,20.8356,VALID,73,VALID,0.561328,
2009-10-17, 02:32:04,VALID,999.243,VALID,0,VALID,88.3052,VALID,0,VALID,20.7771,VALID,73,VALID,0.422656,
2009-10-17, 02:33:04,VALID,999.271,VALID,0,VALID,88.351,VALID,0,VALID,20.7186,VALID,73,VALID,0,
2009-10-17, 02:34:04,VALID,999.266,VALID,0,VALID,88.7096,VALID,0,VALID,20.6601,VALID,73,VALID,0,
2009-10-17, 02:35:04,VALID,999.219,VALID,0,VALID,89.648,VALID,0,VALID,20.6196,VALID,73,VALID,0.403125,
2009-10-17, 02:36:04,VALID,999.227,VALID,0,VALID,90.2126,VALID,0,VALID,20.6796,VALID,73,VALID,0.700781,
2009-10-17, 02:37:04,VALID,999.201,VALID,0,VALID,90.1897,VALID,0,VALID,20.7381,VALID,88,VALID,0.892578,
2009-10-17, 02:38:04,VALID,999.2,VALID,0,VALID,89.6709,VALID,0,VALID,20.7966,VALID,95,VALID,0.883594,
2009-10-17, 02:39:04,VALID,999.18,VALID,0,VALID,89.5717,VALID,0,VALID,20.8356,VALID,108,VALID,0.759375,
2009-10-17, 02:40:04,VALID,999.184,VALID,0,VALID,89.6404,VALID,0,VALID,20.8535,VALID,108,VALID,0.620703,
2009-10-17, 02:41:04,VALID,999.167,VALID,0,VALID,89.4802,VALID,0,VALID,20.9136,VALID,115,VALID,0.6625,
2009-10-17, 02:42:04,VALID,999.176,VALID,0,VALID,89.3047,VALID,0,VALID,20.9315,VALID,119,VALID,0.666797,
2009-10-17, 02:43:04,VALID,999.17,VALID,0,VALID,89.03,VALID,0,VALID,20.99,VALID,119,VALID,0.469922,
2009-10-17, 02:44:04,VALID,999.184,VALID,0,VALID,88.8088,VALID,0,VALID,21.0306,VALID,119,VALID,0.355469,
2009-10-17, 02:45:04,VALID,999.206,VALID,0,VALID,88.6638,VALID,0,VALID,21.029,VALID,119,VALID,0.206641,
2009-10-17, 02:46:04,VALID,999.205,VALID,0,VALID,88.618,VALID,0,VALID,21.0501,VALID,119,VALID,0.117188,
2009-10-17, 02:47:04,VALID,999.204,VALID,0,VALID,88.6791,VALID,0,VALID,21.0501,VALID,119,VALID,0.16875,
2009-10-17, 02:48:04,VALID,999.198,VALID,0,VALID,88.9003,VALID,0.112286,VALID,21.0095,VALID,119,VALID,0.383984,
2009-10-17, 02:49:04,VALID,999.249,VALID,0,VALID,89.0682,VALID,0,VALID,21.0501,VALID,120,VALID,0.81875,
2009-10-17, 02:50:04,VALID,999.233,VALID,0,VALID,88.7783,VALID,0,VALID,21.0696,VALID,130,VALID,1.31758,
2009-10-17, 02:51:04,VALID,999.231,VALID,0,VALID,88.5189,VALID,0,VALID,21.1086,VALID,123,VALID,1.09883,
2009-10-17, 02:52:04,VALID,999.226,VALID,0,VALID,87.9771,VALID,0,VALID,21.0485,VALID,112,VALID,0.751562,
2009-10-17, 02:53:04,VALID,999.192,VALID,0,VALID,87.8017,VALID,0,VALID,20.99,VALID,105,VALID,0.712891,
2009-10-17, 02:54:04,VALID,999.141,VALID,0,VALID,88.0382,VALID,0,VALID,20.912,VALID,104,VALID,0.808594,
2009-10-17, 02:55:04,VALID,999.138,VALID,0,VALID,88.8927,VALID,0,VALID,20.834,VALID,103,VALID,0.741016,
2009-10-17, 02:56:04,VALID,999.127,VALID,0,VALID,89.381,VALID,0,VALID,20.7771,VALID,102,VALID,0.477734,
2009-10-17, 02:57:04,VALID,999.137,VALID,0,VALID,89.6099,VALID,0,VALID,20.6991,VALID,102,VALID,0.257031,
2009-10-17, 02:58:04,VALID,999.109,VALID,0,VALID,89.9761,VALID,0,VALID,20.6601,VALID,102,VALID,0.326562,
2009-10-17, 02:59:04,VALID,999.132,VALID,0,VALID,90.1974,VALID,0,VALID,20.6406,VALID,102,VALID,0.288281,
2009-10-17, 03:00:04,VALID,999.14,VALID,0,VALID,90.1668,VALID,0,VALID,20.5627,VALID,102,VALID,0.314063,
2009-10-17, 03:01:04,VALID,999.118,VALID,0,VALID,90.3194,VALID,0,VALID,20.5042,VALID,100,VALID,0.481641,
2009-10-17, 03:02:04,VALID,999.144,VALID,0,VALID,90.4034,VALID,0,VALID,20.4246,VALID,99,VALID,0.625781,
2009-10-17, 03:03:04,VALID,999.14,VALID,0,VALID,91.2426,VALID,0,VALID,20.3856,VALID,103,VALID,1.17734,
2009-10-17, 03:04:04,VALID,999.167,VALID,0,VALID,91.5326,VALID,0,VALID,20.4457,VALID,98,VALID,1.39609,
2009-10-17, 03:05:04,VALID,999.137,VALID,0,VALID,91.4486,VALID,0,VALID,20.4246,VALID,93,VALID,1.58398,
2009-10-17, 03:06:04,VALID,999.119,VALID,0,VALID,91.38,VALID,0,VALID,20.4457,VALID,95,VALID,1.61172,
2009-10-17, 03:07:04,VALID,999.121,VALID,0,VALID,91.235,VALID,0,VALID,20.4051,VALID,96,VALID,1.28633,
2009-10-17, 03:08:04,VALID,999.098,VALID,0,VALID,91.3723,VALID,0,VALID,20.4067,VALID,80,VALID,1.13828,
2009-10-17, 03:09:04,VALID,999.122,VALID,0,VALID,91.502,VALID,0,VALID,20.4051,VALID,91,VALID,0.549219,
2009-10-17, 03:10:04,VALID,999.135,VALID,0,VALID,91.4028,VALID,0,VALID,20.3872,VALID,98,VALID,0.300781,
2009-10-17, 03:11:04,VALID,999.15,VALID,0,VALID,91.296,VALID,0.112286,VALID,20.3272,VALID,299,VALID,0.938672,
2009-10-17, 03:12:04,VALID,999.136,VALID,0,VALID,91.6317,VALID,0,VALID,20.3077,VALID,314,VALID,1.2543,
2009-10-17, 03:13:04,VALID,999.125,VALID,0,VALID,91.8377,VALID,0,VALID,20.3677,VALID,315,VALID,1.2832,
2009-10-17, 03:14:04,VALID,999.169,VALID,0,VALID,91.8454,VALID,0.112286,VALID,20.3856,VALID,348,VALID,1.14922,
2009-10-17, 03:15:04,VALID,999.185,VALID,0,VALID,91.7691,VALID,0,VALID,20.4831,VALID,343,VALID,0.800391,
2009-10-17, 03:16:04,VALID,999.125,VALID,0,VALID,91.1968,VALID,0,VALID,20.5822,VALID,56,VALID,1.39375,
2009-10-17, 03:17:04,VALID,999.157,VALID,0,VALID,90.3652,VALID,0,VALID,20.6796,VALID,21,VALID,0.983203,
2009-10-17, 03:18:04,VALID,999.233,VALID,0,VALID,89.854,VALID,0,VALID,20.7186,VALID,356,VALID,0.218359,
2009-10-17, 03:19:04,VALID,999.21,VALID,0,VALID,89.8311,VALID,0,VALID,20.7381,VALID,297,VALID,0.597266,
2009-10-17, 03:20:04,VALID,999.209,VALID,0,VALID,89.7854,VALID,0,VALID,20.7366,VALID,337,VALID,1.0082,
2009-10-17, 03:21:04,VALID,999.23,VALID,0,VALID,89.5412,VALID,0,VALID,20.7381,VALID,16,VALID,1.13203,
2009-10-17, 03:22:04,VALID,999.239,VALID,0,VALID,89.5489,VALID,0,VALID,20.6796,VALID,30,VALID,0.845703,
2009-10-17, 03:23:04,VALID,999.233,VALID,0,VALID,89.8006,VALID,0,VALID,20.6211,VALID,43,VALID,0.709375,
2009-10-17, 03:24:04,VALID,999.25,VALID,0,VALID,89.7549,VALID,0,VALID,20.5806,VALID,30,VALID,0.867188,
2009-10-17, 03:25:04,VALID,999.286,VALID,0,VALID,89.7472,VALID,0,VALID,20.5237,VALID,26,VALID,0.482422,
2009-10-17, 03:26:04,VALID,999.315,VALID,0,VALID,89.9074,VALID,0,VALID,20.4847,VALID,26,VALID,0,
2009-10-17, 03:27:04,VALID,999.314,VALID,0,VALID,90.3042,VALID,0,VALID,20.4652,VALID,9,VALID,0.482422,
2009-10-17, 03:28:04,VALID,999.308,VALID,0,VALID,90.7085,VALID,0,VALID,20.4652,VALID,5,VALID,0.706641,
2009-10-17, 03:29:04,VALID,999.277,VALID,0,VALID,90.7467,VALID,0,VALID,20.4847,VALID,27,VALID,0.519922,
2009-10-17, 03:30:04,VALID,999.298,VALID,0,VALID,90.617,VALID,0,VALID,20.4847,VALID,30,VALID,0.767578,
2009-10-17, 03:31:04,VALID,999.306,VALID,0,VALID,90.2813,VALID,0,VALID,20.4847,VALID,33,VALID,0.773047,
2009-10-17, 03:32:04,VALID,999.313,VALID,0,VALID,90.0295,VALID,0,VALID,20.4246,VALID,33,VALID,0.0773437,
2009-10-17, 03:33:04,VALID,999.309,VALID,0,VALID,90.1974,VALID,0,VALID,20.4262,VALID,99,VALID,0.483203,
2009-10-17, 03:34:04,VALID,999.288,VALID,0,VALID,90.5636,VALID,0,VALID,20.4067,VALID,133,VALID,0.363672,
2009-10-17, 03:35:04,VALID,999.283,VALID,0,VALID,90.7314,VALID,0,VALID,20.3856,VALID,78,VALID,0.646094,
2009-10-17, 03:36:04,VALID,999.291,VALID,0,VALID,90.5254,VALID,0,VALID,20.4262,VALID,78,VALID,0.310547,
2009-10-17, 03:37:04,VALID,999.286,VALID,0,VALID,90.2813,VALID,0,VALID,20.4262,VALID,82,VALID,0.713281,
2009-10-17, 03:38:04,VALID,999.26,VALID,0,VALID,91.0671,VALID,0,VALID,20.4457,VALID,82,VALID,0.813281,
2009-10-17, 03:39:04,VALID,999.286,VALID,0,VALID,90.7925,VALID,0,VALID,20.4441,VALID,89,VALID,0.974609,
2009-10-17, 03:40:04,VALID,999.279,VALID,0,VALID,90.3347,VALID,0,VALID,20.4441,VALID,130,VALID,0.951563,
2009-10-17, 03:41:04,VALID,999.266,VALID,0,VALID,90.4949,VALID,0,VALID,20.4652,VALID,132,VALID,1.09141,
2009-10-17, 03:42:04,VALID,999.243,VALID,0,VALID,90.6551,VALID,0,VALID,20.4636,VALID,131,VALID,0.880859,
2009-10-17, 03:43:04,VALID,999.263,VALID,0,VALID,90.5178,VALID,0,VALID,20.4652,VALID,132,VALID,0.830859,
2009-10-17, 03:44:04,VALID,999.242,VALID,0,VALID,90.7772,VALID,0,VALID,20.4636,VALID,131,VALID,1.15625,
2009-10-17, 03:45:04,VALID,999.248,VALID,0,VALID,90.556,VALID,0,VALID,20.4636,VALID,105,VALID,0.711719,
2009-10-17, 03:46:04,VALID,999.241,VALID,0,VALID,90.2279,VALID,0.112286,VALID,20.4636,VALID,138,VALID,0.491797,